Change the Weather History Date:

Friday, November 29, 2013

  Actual Average Record
Temperature  
Mean Temperature 44 °F -  
Max Temperature 64 °F 58 °F 71 °F (2012)
Min Temperature 24 °F 29 °F 10 °F (2001)
Degree Days  
Heating Degree Days 21    
Moisture  
Dew Point 30 °F    
Average Humidity 67    
Maximum Humidity 93    
Minimum Humidity 32    
Precipitation  
Precipitation 0.00 in - - ()
Sea Level Pressure  
Sea Level Pressure 30.33 in    
Wind  
Wind Speed 7 mph (NE)    
Max Wind Speed 13 mph    
Max Gust Speed -    
Visibility 10 miles    
Events      
Averages and records for this station are not official NWS values.
T = Trace of Precipitation, MM = Missing Value Source: NWS Daily Summary

Daily Weather History Graph

Daily Weather History Graph

Search for Another Location

Airport or City:

Trip Planner

Search our weather history database for the weather conditions in past years. The results will help you decide how hot, cold, wet, or windy it might be!

Date:

Astronomy

Nov. 29, 2013 Rise Set
Actual Time 7:33 AM CST 5:55 PM CST
Civil Twilight 7:07 AM CST 6:21 PM CST
Nautical Twilight 6:38 AM CST 6:50 PM CST
Astronomical Twilight 6:09 AM CST 7:19 PM CST
Moon 3:55 AM CST (11/29) 3:29 PM CST (11/29)
Length of Visible Light 11h 13m
Length of Day
10h 21m
Waning Crescent, 14% of the Moon is Illuminated
Nov 29
Waning Crescent
Dec 2
New
Dec 9
First Quarter
Dec 17
Full
Dec 25
Last Quarter

Hourly Weather History & Observations

Time (CST) Temp. Windchill Dew Point Humidity Pressure Visibility Wind Dir Wind Speed Gust Speed Precip Events Conditions
12:15 AM 28.4 °F 19.1 °F 26.6 °F 93% 30.33 in 10.0 mi NNW 10.4 mph - N/A   Clear
12:35 AM 28.4 °F 19.7 °F 26.6 °F 93% 30.33 in 10.0 mi NNW 9.2 mph - N/A   Clear
12:55 AM 28.4 °F 20.4 °F 26.6 °F 93% 30.33 in 10.0 mi NNW 8.1 mph - N/A   Clear
1:15 AM 28.4 °F 21.2 °F 26.6 °F 93% 30.32 in 10.0 mi North 6.9 mph - N/A   Clear
1:35 AM 28.4 °F 20.4 °F 26.6 °F 93% 30.32 in 10.0 mi NNW 8.1 mph - N/A   Clear
1:55 AM 28.4 °F 21.2 °F 26.6 °F 93% 30.31 in 10.0 mi North 6.9 mph - N/A   Clear
2:15 AM 26.6 °F 20.0 °F 24.8 °F 93% 30.31 in 10.0 mi North 5.8 mph - N/A   Clear
2:35 AM 26.6 °F 22.6 °F 24.8 °F 93% 30.31 in 10.0 mi North 3.5 mph - N/A   Clear
2:55 AM 26.6 °F 19.1 °F 24.8 °F 93% 30.31 in 10.0 mi NNW 6.9 mph - N/A   Clear
3:15 AM 28.4 °F 21.2 °F 24.8 °F 86% 30.31 in 10.0 mi North 6.9 mph - N/A   Clear
3:35 AM 26.6 °F 19.1 °F 24.8 °F 93% 30.32 in 10.0 mi North 6.9 mph - N/A   Clear
3:55 AM 26.6 °F 17.5 °F 24.8 °F 93% 30.32 in 10.0 mi North 9.2 mph - N/A   Clear
4:15 AM 26.6 °F 18.2 °F 24.8 °F 93% 30.32 in 10.0 mi NNW 8.1 mph - N/A   Clear
4:35 AM 26.6 °F 20.0 °F 24.8 °F 93% 30.32 in 10.0 mi NNE 5.8 mph - N/A   Clear
4:55 AM 24.8 °F 17.9 °F 23.0 °F 93% 30.31 in 10.0 mi NNE 5.8 mph - N/A   Clear
5:15 AM 24.8 °F 17.9 °F 21.2 °F 86% 30.31 in 10.0 mi North 5.8 mph - N/A   Clear
5:35 AM 24.8 °F 17.9 °F 21.2 °F 86% 30.31 in 10.0 mi North 5.8 mph - N/A   Clear
5:55 AM 24.8 °F 17.9 °F 23.0 °F 93% 30.32 in 10.0 mi North 5.8 mph - N/A   Clear
6:15 AM 24.8 °F 16.9 °F 21.2 °F 86% 30.33 in 10.0 mi NNW 6.9 mph - N/A   Clear
6:35 AM 26.6 °F 17.5 °F 24.8 °F 93% 30.33 in 10.0 mi NNW 9.2 mph - N/A   Clear
6:55 AM 26.6 °F 19.1 °F 24.8 °F 93% 30.34 in 10.0 mi North 6.9 mph - N/A   Clear
7:15 AM 26.6 °F 21.2 °F 24.8 °F 93% 30.34 in 10.0 mi North 4.6 mph - N/A   Clear
7:35 AM 26.6 °F 21.2 °F 24.8 °F 93% 30.35 in 10.0 mi North 4.6 mph - N/A   Clear
7:55 AM 24.8 °F 19.1 °F 23.0 °F 93% 30.36 in 10.0 mi North 4.6 mph - N/A   Clear
8:15 AM 28.4 °F 22.2 °F 26.6 °F 93% 30.36 in 10.0 mi North 5.8 mph - N/A   Clear
8:35 AM 35.6 °F 31.7 °F 32.0 °F 87% 30.36 in 10.0 mi North 4.6 mph - N/A   Clear
8:55 AM 39.2 °F - 33.8 °F 81% 30.37 in 10.0 mi Calm Calm - N/A   Clear
9:15 AM 44.6 °F 43.1 °F 33.8 °F 66% 30.38 in 10.0 mi SE 3.5 mph - N/A   Clear
9:35 AM 46.4 °F 45.2 °F 33.8 °F 62% 30.38 in 10.0 mi South 3.5 mph - N/A   Clear
9:55 AM 48.2 °F - 32.0 °F 54% 30.39 in 10.0 mi SSE 3.5 mph - N/A   Clear
10:15 AM 50.0 °F - 33.8 °F 54% 30.39 in 10.0 mi SE 3.5 mph - N/A   Clear
10:35 AM 51.8 °F - 33.8 °F 50% 30.39 in 10.0 mi Calm Calm - N/A   Clear
10:55 AM 53.6 °F - 33.8 °F 47% 30.39 in 10.0 mi SSE 4.6 mph - N/A   Clear
11:15 AM 55.4 °F - 33.8 °F 44% 30.38 in 10.0 mi South 6.9 mph - N/A   Clear
11:35 AM 55.4 °F - 33.8 °F 44% 30.38 in 10.0 mi South 4.6 mph - N/A   Clear
11:55 AM 57.2 °F - 33.8 °F 41% 30.37 in 10.0 mi South 4.6 mph - N/A   Clear
12:15 PM 57.2 °F - 33.8 °F 41% 30.37 in 10.0 mi South 4.6 mph - N/A   Clear
12:35 PM 59.0 °F - 33.8 °F 39% 30.35 in 10.0 mi SSE 8.1 mph - N/A   Clear
12:55 PM 60.8 °F - 33.8 °F 36% 30.34 in 10.0 mi SSE 8.1 mph - N/A   Clear
1:15 PM 62.6 °F - 33.8 °F 34% 30.33 in 10.0 mi South 11.5 mph - N/A   Clear
1:35 PM 62.6 °F - 33.8 °F 34% 30.32 in 10.0 mi South 10.4 mph - N/A   Clear
1:55 PM 62.6 °F - 33.8 °F 34% 30.32 in 10.0 mi South 12.7 mph - N/A   Clear
2:15 PM 62.6 °F - 33.8 °F 34% 30.31 in 10.0 mi SSE 9.2 mph - N/A   Clear
2:35 PM 62.6 °F - 33.8 °F 34% 30.31 in 10.0 mi South 11.5 mph - N/A   Clear
2:55 PM 64.4 °F - 33.8 °F 32% 30.30 in 10.0 mi South 9.2 mph - N/A   Clear
3:15 PM 64.4 °F - 33.8 °F 32% 30.30 in 10.0 mi South 6.9 mph - N/A   Clear
3:35 PM 64.4 °F - 33.8 °F 32% 30.29 in 10.0 mi SE 8.1 mph - N/A   Clear
3:55 PM 62.6 °F - 33.8 °F 34% 30.29 in 10.0 mi SSE 6.9 mph - N/A   Clear
4:15 PM 64.4 °F - 33.8 °F 32% 30.29 in 10.0 mi South 8.1 mph - N/A   Clear
4:35 PM 62.6 °F - 33.8 °F 34% 30.28 in 10.0 mi SSE 6.9 mph - N/A   Clear
4:55 PM 62.6 °F - 33.8 °F 34% 30.28 in 10.0 mi SSE 5.8 mph - N/A   Clear
5:15 PM 62.6 °F - 33.8 °F 34% 30.28 in 10.0 mi SSE 6.9 mph - N/A   Clear
5:35 PM 60.8 °F - 33.8 °F 36% 30.28 in 10.0 mi SSE 5.8 mph - N/A   Clear
5:55 PM 55.4 °F - 32.0 °F 41% 30.29 in 10.0 mi SE 5.8 mph - N/A   Clear
6:15 PM 51.8 °F - 32.0 °F 47% 30.30 in 10.0 mi SE 5.8 mph - N/A   Clear
6:35 PM 50.0 °F - 30.2 °F 47% 30.30 in 10.0 mi SE 5.8 mph - N/A   Clear
6:55 PM 50.0 °F - 33.8 °F 54% 30.31 in 10.0 mi SSE 8.1 mph - N/A   Clear
7:15 PM 48.2 °F - 33.8 °F 58% 30.31 in 10.0 mi SSE 4.6 mph - N/A   Clear
7:35 PM 44.6 °F 43.1 °F 33.8 °F 66% 30.32 in 10.0 mi ESE 3.5 mph - N/A   Clear
7:55 PM 44.6 °F - 30.2 °F 57% 30.32 in 10.0 mi Calm Calm - N/A   Clear
8:15 PM 39.2 °F - 30.2 °F 70% 30.32 in 10.0 mi Calm Calm - N/A   Clear
8:35 PM 39.2 °F - 30.2 °F 70% 30.33 in 10.0 mi Calm Calm - N/A   Clear
8:55 PM 35.6 °F - 28.4 °F 75% 30.33 in 10.0 mi Calm Calm - N/A   Clear
9:15 PM 35.6 °F 31.7 °F 28.4 °F 75% 30.33 in 10.0 mi NW 4.6 mph - N/A   Clear
9:35 PM 35.6 °F 31.7 °F 28.4 °F 75% 30.33 in 10.0 mi NW 4.6 mph - N/A   Clear
9:55 PM 33.8 °F 29.6 °F 28.4 °F 81% 30.34 in 10.0 mi NNW 4.6 mph - N/A   Clear
10:15 PM 35.6 °F 28.6 °F 30.2 °F 81% 30.34 in 10.0 mi NW 9.2 mph - N/A   Clear
10:35 PM 35.6 °F 29.2 °F 30.2 °F 81% 30.34 in 10.0 mi NW 8.1 mph - N/A   Clear
10:55 PM 33.8 °F 27.7 °F 30.2 °F 87% 30.34 in 10.0 mi NNW 6.9 mph - N/A   Clear
11:15 PM 33.8 °F 29.6 °F 28.4 °F 81% 30.33 in 10.0 mi NNE 4.6 mph - N/A   Clear
11:35 PM 32.0 °F 25.6 °F 28.4 °F 87% 30.34 in 10.0 mi North 6.9 mph - N/A   Clear
11:55 PM 32.0 °F 27.5 °F 28.4 °F 87% 30.33 in 10.0 mi North 4.6 mph - N/A   Clear